OBJECT D, 59776

Orbit data source: Space-Track

You're viewing an Uncataloged Satellite

Recently launched and/or uncataloged satellites may have evolving metadata. Metadata may include but not limited to: Owner, Maufacturer, Bus, Motor, and Mission.

OBJECT D, 59776 is a satellite owned by Sitronics (CIS) in SSO that was launched on Thu, 16 May 2024 UTC via a SOYUZ-2-1B launch vehicle from the Plesetsk Missile And Space Complex (PKMTR). Unknown objects in Earth's orbit typically refer to objects detected orbiting the Earth but have not yet been identified or cataloged. These objects could be anything from previously untracked satellites, spent rocket stages, debris from satellite collisions, or even natural meteoroids temporarily captured by Earth's gravity.

Loading next visibility...
OBJECT D details
Identifier
59776, 2024-092D
Orbit
SSO
Last TLE update11 hours ago
Origin
Flag of CISSitronics (CIS)
ManufacturerSputniks
MissionOperational spacecraft
Bus & MotorCUBESAT 3U?, Unknown motor
Mass3 kg wet, 3 kg dry
Launch date (UTC)
2024-05-16 (7 months ago)
Launch vehicle
SOYUZ-2-1B
Launch site
Plesetsk Missile And Space Complex (PKMTR)
Object typeUnknown
Shape & HBRUnknown
Radar Cross SectionSmall (<0.1 m²)

Expand to show TLE details & history

TLE from 11 hours ago
0 OBJECT D
1 59776U 24092D   24348.17180393  .00013640  00000-0  72736-3 0  9996
2 59776  97.6110  99.0149 0010476 280.4171  79.5880 15.15246177 31722
Epoch: 2024-12-13T04:07Z
Definitive object data (Epoch: 2024-12-13T04:07:23.859Z)
Latitude-0.00004°
Longitude-45.17611°
Altitude522.01 km
Speed7.603 km/s
True Right ascension06h 36m 03s
True Declination0° 00' 00"
Sunlit
Object was in full shadow at TLE epoch
Visualization TLE readout
Latitude-66.20149°
Longitude-27.18837°
Altitude538.314 km
Speed7.596 km/s
Apparent Right ascension03h 30m 05s
Apparent Declination-62° 29' 36"
Sunlit
Object is in daylight
Visualization observer readout
Local Sidereal Time13:25:57
Azimuth209.18° SW
Elevation-60.77°
Doppler factor1
Orbital elements
Apogee altitude524.436 km
Perigee altitude509.989 km
Semi-major axis6,895.349 km
Eccentricity0.0010476
Inclination97.611°
RAAN99.0149°
Arg. of periapsis280.4171°
True anomaly79.7061°
Mean anomaly79.588°
Eccentric anomaly79.64705°
Mean motion3.79061 °/min
BSTAR0.00072736
Orbital period94.97 mins
Loading maneuver chart data...
Loading historical data...
Loading historical data...
Loading historical data...
Loading historical data...
Loading historical data...
Loading historical data...
Loading historical data...

OBJECT D Visibility forecast

Observer location: undefined°, undefined

Span
Click to sort rows by Start time (UTC) header in descending order
Start Az.
Max El. time (UTC)
Max El. Az.
Max El.
End time (UTC)
End Az.
6 mins2024-12-13 20:32:17.787Z10.354° NNE2024-12-13 20:35:17.787Z249.384° W44.779°2024-12-13 20:38:17.787Z195.781° SSW
5 mins2024-12-14 07:13:17.787Z124.721° SE2024-12-14 07:15:17.787Z58.536° ENE31.995°2024-12-14 07:18:17.787Z4.562° NNE
|